| time (UTC) | temp F | wind direction | speed knots | gust knots | rain 1hr in | rain 24hr in | rain mn in | humidity % | barometer mb |
| 20260510214038 | 69 | 211 | 0.0 | 8.7 | 0.00 | 0.49 | 0.00 | 64 | 1011.7 |
| 20260510212037 | 68 | 213 | 0.0 | 8.7 | 0.00 | 0.55 | 0.00 | 64 | 1011.7 |
| 20260510211929 | 68 | 213 | 0.0 | 8.7 | 0.00 | 0.55 | 0.00 | 64 | 1011.5 |
| 20260510210038 | 68 | 224 | 0.0 | 8.7 | 0.00 | 0.55 | 0.00 | 64 | 1011.4 |
| 20260510202038 | 68 | 209 | 8.7 | 11.3 | 0.00 | 0.59 | 0.00 | 64 | 1011.3 |
| 20260510201929 | 69 | 215 | 0.0 | 11.3 | 0.00 | 0.59 | 0.00 | 64 | 1011.4 |
| 20260510200038 | 69 | 202 | 0.0 | 11.3 | 0.00 | 0.59 | 0.00 | 64 | 1011.3 |
| 20260510194038 | 69 | 191 | 0.0 | 10.4 | 0.00 | 0.60 | 0.00 | 64 | 1011.4 |
| 20260510192038 | 69 | 215 | 0.0 | 10.4 | 0.00 | 0.60 | 0.00 | 63 | 1011.6 |
| 20260510191929 | 69 | 216 | 6.1 | 10.4 | 0.00 | 0.60 | 0.00 | 64 | 1011.6 |
| 20260510190041 | 69 | 241 | 7.0 | 9.6 | 0.00 | 0.60 | 0.00 | 62 | 1011.8 |
| 20260510184039 | 68 | 180 | 0.0 | 9.6 | 0.00 | 0.60 | 0.00 | 60 | 1012.0 |
| 20260510182039 | 67 | 223 | 0.0 | 9.6 | 0.00 | 0.60 | 0.00 | 60 | 1012.1 |
| 20260510181929 | 67 | 190 | 0.0 | 9.6 | 0.00 | 0.60 | 0.00 | 59 | 1012.1 |
| 20260510180038 | 68 | 237 | 0.0 | 9.6 | 0.00 | 0.60 | 0.00 | 61 | 1011.9 |
| 20260510174040 | 68 | 207 | 0.0 | 10.4 | 0.00 | 0.60 | 0.00 | 60 | 1012.1 |
| 20260510172039 | 67 | 188 | 0.0 | 10.4 | 0.00 | 0.60 | 0.00 | 58 | 1012.5 |
| 20260510171929 | 67 | 185 | 0.0 | 10.4 | 0.00 | 0.60 | 0.00 | 58 | 1012.5 |
| 20260510170038 | 66 | 190 | 0.0 | 10.4 | 0.00 | 0.60 | 0.00 | 51 | 1012.6 |
| 20260510164038 | 65 | 180 | 0.0 | 7.8 | 0.00 | 0.60 | 0.00 | 51 | 1012.5 |
| 20260510162038 | 63 | 188 | 0.0 | 7.8 | 0.00 | 0.60 | 0.00 | 41 | 1012.6 |
| 20260510161929 | 63 | 187 | 0.0 | 7.8 | 0.00 | 0.60 | 0.00 | 42 | 1012.6 |
| 20260510160038 | 63 | 217 | 0.0 | 7.8 | 0.00 | 0.60 | 0.00 | 37 | 1012.9 |
| 20260510154039 | 62 | 205 | 0.0 | 0.0 | 0.00 | 0.60 | 0.00 | 30 | 1013.0 |
| 20260510152037 | 61 | 207 | 0.0 | 0.0 | 0.00 | 0.60 | 0.00 | 14 | 1012.9 |
| 20260510151929 | 60 | 206 | 0.0 | 0.0 | 0.00 | 0.60 | 0.00 | 13 | 1012.9 |
| 20260510150037 | 59 | 203 | 0.0 | 0.0 | 0.00 | 0.60 | 0.00 | 7 | 1013.0 |
| 20260510144038 | 58 | 196 | 0.0 | 5.2 | 0.00 | 0.60 | 0.00 | 100 | 1013.0 |
| 20260510142039 | 58 | 196 | 0.0 | 5.2 | 0.00 | 0.60 | 0.00 | 100 | 1013.2 |
| 20260510141929 | 58 | 196 | 0.0 | 5.2 | 0.00 | 0.60 | 0.00 | 100 | 1013.2 |
| 20260510140037 | 57 | 194 | 0.0 | 5.2 | 0.00 | 0.60 | 0.00 | 100 | 1013.2 |
| 20260510134037 | 56 | 224 | 0.0 | 0.0 | 0.00 | 0.60 | 0.00 | 100 | 1013.0 |
| 20260510132037 | 55 | 227 | 0.0 | 0.0 | 0.00 | 0.60 | 0.00 | 100 | 1013.1 |
| 20260510131929 | 55 | 227 | 0.0 | 0.0 | 0.00 | 0.60 | 0.00 | 100 | 1013.0 |
| 20260510130038 | 54 | 227 | 0.0 | 0.0 | 0.00 | 0.60 | 0.00 | 100 | 1013.1 |
| 20260510122037 | 53 | 225 | 0.0 | 7.0 | 0.00 | 0.60 | 0.00 | 100 | 1012.3 |
| 20260510121929 | 53 | 225 | 0.0 | 7.0 | 0.00 | 0.60 | 0.00 | 100 | 1012.2 |
| 20260510120037 | 53 | 225 | 0.0 | 0.0 | 0.00 | 0.60 | 0.00 | 100 | 1012.4 |
| 20260510114037 | 53 | 218 | 0.0 | 0.0 | 0.00 | 0.60 | 0.00 | 100 | 1012.4 |
| 20260510112037 | 53 | 205 | 0.0 | 0.0 | 0.00 | 0.60 | 0.00 | 100 | 1012.4 |
| 20260510111929 | 52 | 213 | 0.0 | 0.0 | 0.00 | 0.60 | 0.00 | 100 | 1012.5 |
| 20260510110038 | 52 | 173 | 0.0 | 0.0 | 0.00 | 0.60 | 0.00 | 100 | 1012.4 |
| 20260510104038 | 52 | 172 | 0.0 | 0.0 | 0.00 | 0.61 | 0.00 | 100 | 1012.6 |
| 20260510102037 | 52 | 173 | 0.0 | 0.0 | 0.00 | 0.63 | 0.00 | 100 | 1012.6 |
| 20260510101929 | 52 | 172 | 0.0 | 0.0 | 0.00 | 0.63 | 0.00 | 100 | 1012.6 |
| 20260510100037 | 52 | 172 | 0.0 | 0.0 | 0.00 | 0.63 | 0.00 | 100 | 1012.5 |
| 20260510094038 | 52 | 173 | 0.0 | 0.0 | 0.00 | 0.64 | 0.00 | 100 | 1012.5 |
| 20260510092037 | 52 | 173 | 0.0 | 0.0 | 0.00 | 0.64 | 0.00 | 100 | 1012.3 |
| 20260510091929 | 52 | 173 | 0.0 | 0.0 | 0.00 | 0.64 | 0.00 | 100 | 1012.3 |
| 20260510090037 | 52 | 173 | 0.0 | 0.0 | 0.00 | 0.64 | 0.00 | 100 | 1012.0 |
| 20260510084037 | 52 | 173 | 0.0 | 0.0 | 0.00 | 0.64 | 0.00 | 100 | 1011.7 |
| 20260510082037 | 52 | 173 | 0.0 | 0.0 | 0.00 | 0.64 | 0.00 | 100 | 1011.7 |
| 20260510081929 | 52 | 173 | 0.0 | 0.0 | 0.00 | 0.64 | 0.00 | 100 | 1011.7 |
| 20260510080038 | 52 | 173 | 0.0 | 0.0 | 0.00 | 0.64 | 0.00 | 100 | 1011.8 |
| 20260510074037 | 52 | 172 | 0.0 | 0.0 | 0.00 | 0.64 | 0.00 | 100 | 1011.9 |
| 20260510072037 | 52 | 172 | 0.0 | 0.0 | 0.00 | 0.64 | 0.00 | 100 | 1011.8 |
| 20260510071929 | 52 | 172 | 0.0 | 0.0 | 0.00 | 0.64 | 0.00 | 100 | 1011.8 |
| 20260510070039 | 52 | 172 | 0.0 | 0.0 | 0.00 | 0.64 | 0.00 | 100 | 1011.5 |
| 20260510064038 | 52 | 172 | 0.0 | 0.0 | 0.00 | 0.64 | 0.00 | 100 | 1011.5 |
| 20260510062037 | 52 | 172 | 0.0 | 0.0 | 0.00 | 0.64 | 0.00 | 100 | 1011.3 |
| 20260510061929 | 52 | 172 | 0.0 | 0.0 | 0.00 | 0.64 | 0.00 | 100 | 1011.3 |
| 20260510060037 | 52 | 172 | 0.0 | 0.0 | 0.00 | 0.64 | 0.00 | 100 | 1011.5 |
| 20260510054037 | 52 | 172 | 0.0 | 0.0 | 0.00 | 0.64 | 0.00 | 100 | 1011.6 |
| 20260510052037 | 52 | 172 | 0.0 | 0.0 | 0.00 | 0.64 | 0.00 | 100 | 1011.7 |
| 20260510051929 | 52 | 172 | 0.0 | 0.0 | 0.00 | 0.64 | 0.00 | 100 | 1011.6 |
| 20260510050037 | 52 | 172 | 0.0 | 0.0 | 0.00 | 0.64 | 0.00 | 100 | 1011.2 |
| 20260510044037 | 52 | 172 | 0.0 | 0.0 | 0.00 | 0.64 | 0.00 | 100 | 1011.2 |
| 20260510042037 | 52 | 172 | 0.0 | 0.0 | 0.00 | 0.64 | 0.00 | 100 | 1011.4 |
| 20260510041929 | 52 | 172 | 0.0 | 0.0 | 0.00 | 0.64 | 0.00 | 100 | 1011.5 |
| 20260510034038 | 52 | 172 | 0.0 | 0.0 | 0.00 | 0.64 | 0.64 | 100 | 1011.4 |
| 20260510032037 | 52 | 172 | 0.0 | 0.0 | 0.00 | 0.64 | 0.64 | 100 | 1011.2 |
| 20260510031929 | 52 | 172 | 0.0 | 0.0 | 0.00 | 0.64 | 0.64 | 100 | 1011.1 |
| 20260510030037 | 52 | 172 | 0.0 | 0.0 | 0.00 | 0.64 | 0.64 | 100 | 1011.3 |
| 20260510024037 | 52 | 172 | 0.0 | 0.0 | 0.07 | 0.64 | 0.64 | 100 | 1011.6 |
| 20260510022134 | 52 | 172 | 0.0 | 0.0 | 0.07 | 0.64 | 0.64 | 100 | 1011.6 |
| 20260510022038 | 52 | 172 | 0.0 | 0.0 | 0.07 | 0.64 | 0.64 | 100 | 1011.6 |
| 20260510021929 | 52 | 172 | 0.0 | 0.0 | 0.07 | 0.64 | 0.64 | 100 | 1011.6 |
| 20260510020037 | 52 | 172 | 0.0 | 0.0 | 0.10 | 0.57 | 0.57 | 100 | 1011.8 |
| 20260510014037 | 52 | 172 | 0.0 | 0.0 | 0.10 | 0.57 | 0.57 | 100 | 1011.9 |
| 20260510012037 | 52 | 184 | 0.0 | 0.0 | 0.10 | 0.57 | 0.57 | 100 | 1012.0 |
| 20260510011929 | 52 | 184 | 0.0 | 0.0 | 0.10 | 0.57 | 0.57 | 100 | 1012.0 |
| 20260510010037 | 53 | 187 | 0.0 | 0.0 | 0.10 | 0.57 | 0.57 | 100 | 1012.5 |
| 20260510004037 | 53 | 187 | 0.0 | 0.0 | 0.12 | 0.47 | 0.47 | 100 | 1012.9 |
| 20260510002037 | 53 | 185 | 0.0 | 0.0 | 0.12 | 0.47 | 0.47 | 100 | 1012.4 |
| 20260510001929 | 53 | 185 | 0.0 | 0.0 | 0.12 | 0.47 | 0.47 | 100 | 1012.5 |
| 20260509234037 | 54 | 198 | 0.0 | 0.0 | 0.14 | 0.35 | 0.35 | 100 | 1012.2 |
| 20260509232037 | 54 | 199 | 0.0 | 0.0 | 0.14 | 0.35 | 0.35 | 100 | 1012.2 |
| 20260509231929 | 55 | 204 | 0.0 | 0.0 | 0.14 | 0.35 | 0.35 | 100 | 1012.2 |
| 20260509230037 | 54 | 217 | 0.0 | 0.0 | 0.12 | 0.21 | 0.21 | 100 | 1012.1 |
| 20260509224037 | 55 | 217 | 0.0 | 0.0 | 0.12 | 0.21 | 0.21 | 100 | 1012.2 |
| 20260509222037 | 55 | 187 | 0.0 | 0.0 | 0.12 | 0.21 | 0.21 | 100 | 1012.2 |
| 20260509221929 | 55 | 184 | 0.0 | 0.0 | 0.12 | 0.21 | 0.21 | 100 | 1012.4 |
| 20260509220037 | 55 | 185 | 0.0 | 0.0 | 0.12 | 0.21 | 0.21 | 3 | 1012.1 |